Time+03,TemperatureF,Dew PointF,Humidity,Sea Level PressureIn,VisibilityMPH,Wind Direction,Wind SpeedMPH,Gust SpeedMPH,PrecipitationIn,Events,Conditions,WindDirDegrees,DateUTC
12:55 AM,78.3,59.7,53,29.78,6.2,NNW,5.8,-,N/A,,Clear,330,2013-05-09 21:55:00
1:55 AM,76.3,60.4,58,29.76,6.2,West,4.6,-,N/A,,Clear,280,2013-05-09 22:55:00
2:55 AM,75.6,60.3,59,29.78,6.2,West,5.8,-,N/A,,Clear,270,2013-05-09 23:55:00
4:55 AM,74.1,59.2,59,29.80,6.2,WNW,8.1,-,N/A,,Clear,290,2013-05-10 01:55:00
5:55 AM,76.1,61.2,60,29.82,6.2,NW,8.1,-,N/A,,Clear,310,2013-05-10 02:55:00
6:55 AM,80.2,63.5,57,29.84,6.2,WSW,8.1,-,N/A,,Clear,250,2013-05-10 03:55:00
7:55 AM,85.6,61.0,43,29.84,6.2,WNW,8.1,-,N/A,,Clear,300,2013-05-10 04:55:00
8:55 AM,90.3,54.9,30,29.86,6.2,NW,8.1,-,N/A,,Clear,320,2013-05-10 05:55:00
9:55 AM,93.2,52.3,25,29.85,6.2,NW,11.5,-,N/A,,Partly Cloudy,320,2013-05-10 06:55:00
10:55 AM,95.4,51.6,23,29.85,6.2,NNW,10.4,-,N/A,,Mostly Cloudy,330,2013-05-10 07:55:00
11:55 AM,97.9,48.0,18,29.83,6.2,NW,12.7,18.4,N/A,,Clear,310,2013-05-10 08:55:00
12:55 PM,99.5,44.8,15,29.82,6.2,NW,16.1,-,N/A,,Clear,310,2013-05-10 09:55:00
1:55 PM,99.9,39.7,13,29.81,6.2,NW,20.7,25.3,N/A,,Clear,320,2013-05-10 10:55:00
2:55 PM,99.7,39.6,13,29.80,6.2,NW,20.7,-,N/A,,Clear,320,2013-05-10 11:55:00
3:55 PM,97.7,46.6,17,29.79,6.2,NNW,16.1,-,N/A,,Clear,340,2013-05-10 12:55:00
4:55 PM,95.7,47.8,19,29.79,6.2,North,15.0,-,N/A,,Clear,350,2013-05-10 13:55:00
5:55 PM,93.4,48.6,22,29.81,6.2,NNW,12.7,-,N/A,,Clear,340,2013-05-10 14:55:00
6:55 PM,91.2,50.5,25,29.81,6.2,North,12.7,-,N/A,,Clear,350,2013-05-10 15:55:00
7:55 PM,89.6,49.1,25,29.81,6.2,North,9.2,-,N/A,,Clear,360,2013-05-10 16:55:00
8:55 PM,87.8,49.5,27,29.82,6.2,North,5.8,-,N/A,,Clear,360,2013-05-10 17:55:00
9:55 PM,84.6,51.3,32,29.81,6.2,NNW,5.8,-,N/A,,Clear,340,2013-05-10 18:55:00
10:55 PM,80.8,52.7,38,29.80,6.2,SW,5.8,-,N/A,,Clear,230,2013-05-10 19:55:00
11:55 PM,79.5,52.5,39,29.79,6.2,WSW,8.1,-,N/A,,Clear,250,2013-05-10 20:55:00